[[{"header":{"parameterUnit":"m.s-1","parameterCategory":1,"la1":30.2991,"la2":30.254,"lo1":-89.0895,"lo2":-89.0444,"dy":0.0017,"dx":0.0017,"nx":28,"ny":28,"refTime":"2025-08-27T03:00:00:Z","depth":0,"parameterNumber":2,"parameterNumberName":"U-component_of_WINDS"},"data":[0,0,0,0,0,0,0,0,0,0,0,0,0,0,0,0,0,0,0,0,0,0,0,0,0,0,0,0,0,0,0,0,0,0,0,0,0,0,0,0,0,0,0,0,0,0,0,0,0,0,0,0,0,0,0,0,0,0,-1.0973,-1.0972,0,-1.0915,-1.0914,-1.0913,-1.0879,-1.0878,-1.0878,-1.0878,-1.0817,-1.0815,-1.0814,0,0,0,0,0,0,0,0,0,0,0,0,0,-1.1054,-1.1053,-1.0973,-1.0972,-1.0972,-1.0915,-1.0914,-1.0913,-1.0879,-1.0878,-1.0878,-1.0878,-1.0817,-1.0815,-1.0814,0,0,0,0,0,0,0,0,0,0,0,0,0,-1.101,-1.1052,-1.0973,-1.0948,-1.0945,-1.0915,-1.0914,-1.0913,-1.0879,-1.0878,-1.0878,-1.0878,-1.0818,-1.0816,-1.0813,-1.0804,0,0,-1.0807,-1.0806,0,0,0,0,0,0,0,0,-1.1012,-1.1007,-1.0952,-1.0949,-1.0946,-1.0904,-1.092,-1.0876,-1.0879,-1.0904,-1.0878,-1.0878,-1.0846,-1.0841,-1.0831,-1.0801,-1.0799,-1.0806,-1.0805,-1.0804,-1.0803,0,0,0,0,0,0,0,-1.1015,-1.1009,-1.095,-1.0951,-1.0948,-1.0939,-1.0932,-1.0912,-1.0877,-1.0901,-1.0899,-1.0892,-1.0844,-1.0833,-1.0829,-1.0798,-1.0806,-1.0804,-1.0803,-1.0802,-1.076,-1.076,0,0,0,0,0,0,-1.1023,-1.1012,-1.0952,-1.0948,-1.0979,-1.0938,-1.093,-1.0917,-1.0877,-1.087,-1.0893,-1.0891,-1.0837,-1.0832,-1.0827,-1.0814,-1.0804,-1.0802,-1.0801,-1.0759,-1.076,-1.076,0,0,0,0,0,0,-1.1025,-1.1018,-1.0954,-1.0979,-1.0971,-1.0936,-1.0922,-1.0916,-1.0905,-1.087,-1.0864,-1.0888,-1.0836,-1.083,-1.0811,-1.0812,-1.0801,-1.0799,-1.0759,-1.076,-1.076,-1.0789,0,0,0,0,0,0,-1.1027,-1.1019,-1.1015,-1.0979,-1.0969,-1.0939,-1.0922,-1.0915,-1.0902,-1.0899,-1.0864,-1.0858,-1.0836,-1.0814,-1.0808,-1.0809,-1.0797,-1.0759,-1.0759,-1.076,-1.0788,-1.0791,-1.0793,0,0,0,0,0,-1.103,-1.1024,-1.1015,-1.1008,-1.0964,-1.0939,-1.0933,-1.0909,-1.0902,-1.0898,-1.0876,-1.0859,-1.0813,-1.0812,-1.0806,-1.0805,-1.0759,-1.0759,-1.076,-1.0787,-1.079,-1.0793,0,0,0,0,0,0,-1.106,-1.1019,-1.1008,-1.0991,-1.0969,-1.0933,-1.0927,-1.0912,-1.0891,-1.089,-1.0859,-1.0852,-1.0836,-1.0818,-1.0819,-1.0795,-1.0784,-1.0783,-1.0807,-1.081,-1.0812,-1.0817,-1.0795,0,0,0,0,0,-1.1064,-1.1048,-1.1013,-1.1002,-1.0991,-1.0962,-1.095,-1.0933,-1.0909,-1.0899,-1.0875,-1.0852,-1.0832,-1.082,-1.08,-1.0785,-1.0778,-1.0782,-1.0784,-1.0786,-1.0786,-1.0779,-1.0781,-1.0762,-1.0762,-1.0762,0,0,-1.1073,-1.1049,-1.1041,-1.1007,-1.0988,-1.0972,-1.0954,-1.0937,-1.0925,-1.0896,-1.0877,-1.0859,-1.0831,-1.0815,-1.0807,-1.08,-1.079,-1.0787,-1.0789,-1.0788,-1.078,-1.0782,-1.0784,-1.0762,-1.0762,-1.0762,0,0,-1.1082,-1.1062,-1.1051,-1.1033,-1.1005,-1.0985,-1.0983,-1.095,-1.0937,-1.0918,-1.0896,-1.0881,-1.0847,-1.0829,-1.0816,-1.082,-1.0804,-1.0814,-1.0826,-1.082,-1.0821,-1.0823,-1.0826,-1.0827,-1.0814,-1.0814,-1.0814,0,-1.1097,-1.1072,-1.1047,-1.1032,-1.1018,-1.0993,-1.0982,-1.0965,-1.0931,-1.0923,-1.0916,-1.0875,-1.0854,-1.0834,-1.0836,-1.0825,-1.0822,-1.0818,-1.0823,-1.0824,-1.0825,-1.0828,-1.0829,-1.0815,-1.0815,-1.0815,-1.0815,0,-1.1092,-1.1076,-1.107,-1.104,-1.1026,-1.1013,-1.0986,-1.0974,-1.0959,-1.094,-1.0922,-1.0896,-1.0872,-1.0865,-1.0849,-1.0844,-1.0841,-1.0829,-1.0817,-1.0829,-1.0831,-1.0831,-1.0817,-1.0817,-1.0816,-1.0816,0,0,-1.1117,-1.1074,-1.1073,-1.106,-1.1028,-1.1014,-1.1001,-1.0978,-1.0969,-1.0947,-1.0936,-1.0909,-1.0899,-1.0883,-1.0865,-1.086,-1.0867,-1.0849,-1.0848,-1.0854,-1.086,-1.087,-1.0872,-1.0856,-1.0856,-1.0856,-1.0863,0,-1.1122,-1.1097,-1.1074,-1.1058,-1.1043,-1.1019,-1.1007,-1.0987,-1.0969,-1.0954,-1.0935,-1.0917,-1.0904,-1.0895,-1.0888,-1.0867,-1.0868,-1.0866,-1.0846,-1.0845,-1.0854,-1.0872,-1.0882,-1.089,-1.0864,-1.0864,-1.0864,0,-1.1124,-1.1104,-1.1087,-1.1058,-1.1051,-1.1041,-1.1019,-1.1004,-1.0981,-1.0969,-1.0953,-1.0935,-1.092,-1.091,-1.089,-1.089,-1.088,-1.0869,-1.0869,-1.0866,-1.0856,-1.0872,-1.0892,-1.0894,-1.0864,-1.0864,-1.0864,0,-1.1145,-1.1114,-1.11,-1.109,-1.1055,-1.1049,-1.1035,-1.1011,-1.1,-1.098,-1.0972,-1.0951,-1.094,-1.0924,-1.0901,-1.0896,-1.0884,-1.0872,-1.0875,-1.0875,-1.0873,-1.0874,-1.0893,-1.0866,-1.0866,-1.0866,-1.0866,0,-1.1153,-1.1143,-1.111,-1.1101,-1.109,-1.1065,-1.1054,-1.1038,-1.1018,-1.1006,-1.0983,-1.0973,-1.0943,-1.0929,-1.091,-1.0898,-1.0892,-1.0883,-1.0878,-1.0885,-1.0887,-1.0879,-1.0878,-1.0866,-1.0866,-1.0866,-1.0866,0,-1.1175,-1.1152,-1.1135,-1.1105,-1.1097,-1.1091,-1.1065,-1.1056,-1.1038,-1.1024,-1.1019,-1.0991,-1.0973,-1.0949,-1.0923,-1.0911,-1.0902,-1.0894,-1.091,-1.0907,-1.0912,-1.0913,-1.0928,-1.0929,-1.09,-1.09,-1.0901,0,-1.1181,-1.1174,-1.1144,-1.1135,-1.1121,-1.1106,-1.1095,-1.107,-1.1059,-1.1033,-1.1028,-1.1009,-1.0992,-1.0966,-1.0943,-1.0924,-1.0916,-1.0923,-1.0913,-1.0922,-1.0918,-1.092,-1.0919,-1.0926,-1.0926,-1.0927,-1.0927,0,-1.1197,-1.1186,-1.117,-1.1152,-1.1139,-1.1122,-1.1105,-1.1098,-1.107,-1.1059,-1.1041,-1.1029,-1.1004,-1.0986,-1.0965,-1.095,-1.0934,-1.093,-1.093,-1.0938,-1.0948,-1.0944,-1.0918,-1.093,-1.093,-1.0929,-1.0929,-1.0929,-1.1212,-1.1205,-1.1183,-1.1167,-1.1151,-1.1136,-1.1127,-1.1109,-1.1094,-1.1073,-1.1059,-1.1043,-1.1022,-1.0991,-1.0978,-1.0965,-1.0958,-1.0958,-1.0958,-1.0958,-1.0962,-1.095,-1.0961,-1.096,-1.096,-1.096,-1.096,0,-1.1227,-1.1212,-1.1198,-1.1175,-1.1163,-1.115,-1.113,-1.1121,-1.1107,-1.1089,-1.1074,-1.1055,-1.1038,-1.1015,-1.0997,-1.0991,-1.0984,-1.0987,-1.0988,-1.0985,-1.0968,-1.097,-1.0994,-1.0994,-1.0994,-1.0994,-1.0994,-1.0994,-1.1233,-1.1221,-1.1209,-1.1189,-1.1174,-1.1159,-1.115,-1.1136,-1.1122,-1.1102,-1.1088,-1.1074,-1.1054,-1.1034,-1.1019,-1.1012,-1.1007,-1.1014,-1.1005,-1.0989,-1.0986,-1.0983,-1.0986,-1.1012,-1.1012,-1.1024,-1.1024,-1.1024]},{"header":{"parameterUnit":"m.s-1","parameterCategory":1,"la1":30.2991,"la2":30.254,"lo1":-89.0895,"lo2":-89.0444,"dy":0.0017,"dx":0.0017,"nx":28,"ny":28,"refTime":"2025-08-27T03:00:00:Z","depth":0,"parameterNumber":3,"parameterNumberName":"V-component_of_WINDS"},"data":[0,0,0,0,0,0,0,0,0,0,0,0,0,0,0,0,0,0,0,0,0,0,0,0,0,0,0,0,0,0,0,0,0,0,0,0,0,0,0,0,0,0,0,0,0,0,0,0,0,0,0,0,0,0,0,0,0,0,1.7717,1.7717,0,1.764,1.7639,1.7638,1.7528,1.7526,1.7524,1.7522,1.7443,1.7443,1.7443,0,0,0,0,0,0,0,0,0,0,0,0,0,1.7772,1.7772,1.7718,1.7717,1.7716,1.764,1.7639,1.7638,1.7528,1.7526,1.7523,1.7521,1.7443,1.7443,1.7442,0,0,0,0,0,0,0,0,0,0,0,0,0,1.7727,1.7771,1.7718,1.7652,1.7645,1.764,1.7639,1.7637,1.7528,1.7526,1.7523,1.752,1.7443,1.7443,1.7442,1.7496,0,0,1.7441,1.7441,0,0,0,0,0,0,0,0,1.773,1.7725,1.7662,1.7656,1.7649,1.759,1.7629,1.759,1.7529,1.7573,1.7522,1.7519,1.7495,1.749,1.7481,1.7492,1.7489,1.7441,1.7441,1.744,1.744,0,0,0,0,0,0,0,1.7733,1.7728,1.7687,1.7662,1.7653,1.7626,1.7617,1.7621,1.7551,1.7569,1.7561,1.7553,1.749,1.7482,1.7479,1.7488,1.7441,1.744,1.744,1.744,1.7537,1.754,0,0,0,0,0,0,1.7746,1.7731,1.7689,1.7684,1.7683,1.7628,1.7617,1.7612,1.755,1.7538,1.7555,1.7548,1.7484,1.7479,1.7475,1.7532,1.744,1.744,1.744,1.7534,1.7538,1.7541,0,0,0,0,0,0,1.7747,1.7743,1.7692,1.7705,1.7697,1.763,1.7625,1.7612,1.7603,1.754,1.7527,1.756,1.7482,1.7476,1.7491,1.7528,1.744,1.7439,1.7531,1.7535,1.7539,1.7647,0,0,0,0,0,0,1.7749,1.7744,1.7764,1.7707,1.7697,1.771,1.7627,1.7613,1.7603,1.7592,1.7541,1.7529,1.7479,1.7493,1.7491,1.7525,1.7439,1.7527,1.7533,1.7538,1.764,1.7655,1.7667,0,0,0,0,0,1.7752,1.7798,1.7765,1.7761,1.7719,1.7712,1.7706,1.7647,1.7606,1.7625,1.7584,1.7531,1.7525,1.7495,1.7492,1.7527,1.7525,1.7531,1.7538,1.7634,1.7652,1.7667,0,0,0,0,0,0,1.7861,1.7789,1.7752,1.7781,1.7753,1.7693,1.7715,1.7668,1.7652,1.7643,1.7571,1.756,1.7584,1.7557,1.7526,1.7575,1.7517,1.7523,1.7591,1.7607,1.7621,1.7625,1.7438,0,0,0,0,0,1.7888,1.7888,1.7825,1.7857,1.7845,1.7783,1.7777,1.7734,1.7703,1.7691,1.7651,1.7623,1.7614,1.761,1.7598,1.7637,1.7623,1.766,1.7673,1.7685,1.769,1.7706,1.7721,1.7562,1.7562,1.7562,0,0,1.7945,1.7905,1.7909,1.7878,1.7851,1.7852,1.7774,1.7778,1.7778,1.7691,1.7702,1.7673,1.7636,1.7663,1.7673,1.7641,1.7731,1.7693,1.7703,1.7701,1.7714,1.773,1.7743,1.7567,1.7566,1.7565,0,0,1.8047,1.8019,1.804,1.8016,1.7976,1.7935,1.7941,1.7888,1.7864,1.7875,1.7809,1.7809,1.7796,1.7772,1.7758,1.7853,1.7803,1.7852,1.7922,1.7939,1.7951,1.7962,1.7993,1.8005,1.7858,1.7858,1.7858,0,1.8122,1.812,1.8058,1.8066,1.8053,1.7976,1.7997,1.7976,1.7936,1.7929,1.7896,1.7877,1.7847,1.7866,1.7889,1.7882,1.7885,1.7856,1.7954,1.7964,1.7973,1.8002,1.8015,1.7864,1.7864,1.7863,1.7862,0,1.8213,1.8213,1.8236,1.8198,1.8189,1.8204,1.8144,1.8142,1.8101,1.8063,1.8074,1.8036,1.8014,1.8017,1.7977,1.803,1.8011,1.7968,1.7906,1.7996,1.8021,1.8032,1.7873,1.7871,1.7869,1.7867,0,0,1.8379,1.8308,1.8317,1.8298,1.825,1.8248,1.8261,1.824,1.8238,1.8214,1.8221,1.8212,1.8171,1.8156,1.8113,1.8128,1.8203,1.8081,1.8079,1.8103,1.8256,1.8287,1.8301,1.8171,1.8172,1.8174,1.8258,0,1.847,1.8485,1.843,1.8459,1.8457,1.8384,1.8394,1.8366,1.8332,1.8326,1.8288,1.8282,1.8229,1.8219,1.8231,1.8191,1.8232,1.8185,1.8175,1.8175,1.8183,1.8315,1.8348,1.843,1.8268,1.827,1.8271,0,1.8577,1.8557,1.8586,1.8536,1.8533,1.8543,1.8519,1.8515,1.8481,1.8455,1.8439,1.8389,1.8396,1.8341,1.835,1.8319,1.8312,1.8292,1.8294,1.8288,1.8226,1.831,1.8454,1.8466,1.8287,1.8286,1.8285,0,1.8691,1.8673,1.8687,1.8674,1.8616,1.8625,1.8601,1.8565,1.8556,1.8536,1.8529,1.851,1.8499,1.8486,1.8432,1.8398,1.8447,1.8388,1.8424,1.8425,1.8435,1.8434,1.8577,1.8437,1.8436,1.8436,1.8436,0,1.8796,1.8816,1.8738,1.8746,1.8766,1.8704,1.8725,1.8695,1.8663,1.8664,1.8602,1.8604,1.8535,1.8529,1.8488,1.85,1.8497,1.8475,1.8463,1.8479,1.8481,1.8471,1.8462,1.8439,1.8439,1.8438,1.8437,0,1.8926,1.8875,1.8885,1.883,1.8817,1.8834,1.8786,1.8792,1.8755,1.8757,1.8754,1.8695,1.8685,1.8632,1.861,1.8582,1.8608,1.8587,1.8619,1.8611,1.8649,1.8645,1.8788,1.8802,1.8656,1.8657,1.8659,0,1.8994,1.9008,1.8954,1.895,1.893,1.8925,1.8915,1.8855,1.8847,1.881,1.882,1.8806,1.879,1.8779,1.8734,1.8717,1.8693,1.8744,1.8689,1.8704,1.869,1.8688,1.8688,1.8754,1.8756,1.8758,1.8759,0,1.912,1.9094,1.9083,1.9062,1.9053,1.9034,1.9011,1.9012,1.8945,1.894,1.8929,1.8918,1.8896,1.8882,1.8857,1.8833,1.8784,1.8777,1.8784,1.8798,1.8815,1.8804,1.8647,1.8773,1.8772,1.8771,1.877,1.8769,1.9219,1.9227,1.919,1.9179,1.9156,1.9137,1.9139,1.9102,1.9092,1.9069,1.9035,1.9029,1.8995,1.8957,1.8937,1.8931,1.8903,1.8914,1.8916,1.8919,1.8926,1.882,1.8927,1.8926,1.8926,1.8925,1.8925,0,1.9339,1.9312,1.9303,1.9273,1.9265,1.9222,1.9195,1.919,1.9186,1.9158,1.9145,1.9133,1.9119,1.9074,1.9056,1.9059,1.9037,1.9056,1.9054,1.9048,1.8953,1.8947,1.9075,1.9075,1.9075,1.9075,1.9075,1.9075,1.94,1.941,1.9381,1.9379,1.9352,1.9346,1.9334,1.9315,1.9293,1.9282,1.9271,1.9242,1.9207,1.9185,1.9171,1.9158,1.9153,1.9179,1.9159,1.907,1.9055,1.9041,1.9036,1.9179,1.9179,1.9254,1.9254,1.9255]}]]